Simultaneous Nadir Overpasses (SNOs) Predictions

Prediction of SNOs over PacNW region [( 10.00, 139.50) to ( 22.70, 165.60)] between AQUA and NPP Satellites:

Table of predicted SNOs over PacNW region for the next 30.0 days since TLE Epoch: 1/8/2022
Index Date (AQUA) Time (AQUA) AQUA Lat,Lon Date (NPP) Time (NPP) NPP Lat,Lon Distance(km) Time Diff (sec)
1 01/14/2022 15:10:40 22.60, 159.84 01/14/2022 15:11:38 23.17, 157.20 278.21 58
2 01/17/2022 03:32:30 22.66, 147.52 01/17/2022 03:29:01 26.85, 144.68 547.83 209
3 01/22/2022 16:00:05 22.61, 147.51 01/22/2022 16:02:09 23.27, 144.58 309.28 124
4 01/30/2022 15:10:37 22.59, 159.90 01/30/2022 15:11:14 23.20, 157.29 275.91 37
